Change the Weather History Date:

Wednesday, November 28, 2012

  Actual Average Record
Temperature  
Mean Temperature 74 °F 73 °F  
Max Temperature 80 °F 80 °F 88 °F (1988)
Min Temperature 67 °F 66 °F 38 °F (1903)
Degree Days  
Heating Degree Days 0 0  
Month to date heating degree days 1 0  
Since 1 July heating degree days 1 0  
Cooling Degree Days 9 8  
Month to date cooling degree days 186 284  
Year to date cooling degree days 4425 4356  
Growing Degree Days 23 (Base 50)    
Moisture  
Dew Point 63 °F    
Average Humidity 70    
Maximum Humidity 87    
Minimum Humidity 52    
Precipitation  
Precipitation T in 0.09 in 1.34 in (1947)
Month to date precipitation 0.25 3.10  
Year to date precipitation 86.18 59.69  
Snow  
Snow 0.00 in - - ()
Month to date snowfall 0.0  
Since 1 July snowfall 0.0  
Since 1 September snowfall 0.0  
Snow Depth 0.00 in    
Sea Level Pressure  
Sea Level Pressure 30.15 in    
Wind  
Wind Speed 5 mph (North)    
Max Wind Speed 12 mph    
Max Gust Speed 17 mph    
Visibility 10 miles    
Events Rain    
T = Trace of Precipitation, MM = Missing Value Source: NWS Daily Summary

Daily Weather History Graph

Daily Weather History Graph

Search for Another Location

Airport or City:

Trip Planner

Search our weather history database for the weather conditions in past years. The results will help you decide how hot, cold, wet, or windy it might be!

Date:

Astronomy

Nov. 28, 2012 Rise Set
Actual Time 6:49 AM EST 5:29 PM EST
Civil Twilight 6:24 AM EST 5:54 PM EST
Nautical Twilight 5:55 AM EST 6:22 PM EST
Astronomical Twilight 5:28 AM EST 6:50 PM EST
Moon 5:43 PM EST (11/28) 6:45 AM EST (11/28)
Length of Visible Light 11h 30m
Length of Day
10h 40m
Full, 100% of the Moon is Illuminated
Nov 28
Full
Dec 6
Last Quarter
Dec 13
New
Dec 20
First Quarter
Dec 28
Full

Hourly Weather History & Observations

Time (EST) Temp. Dew Point Humidity Pressure Visibility Wind Dir Wind Speed Gust Speed Precip Events Conditions
12:53 AM 69.1 °F 64.9 °F 87% 30.13 in 10.0 mi Calm Calm - N/A   Mostly Cloudy
1:53 AM 69.1 °F 64.9 °F 87% 30.12 in 10.0 mi Calm Calm - N/A   Clear
2:53 AM 69.1 °F 64.9 °F 87% 30.11 in 10.0 mi WNW 3.5 mph - N/A   Clear
3:53 AM 69.1 °F 64.9 °F 87% 30.11 in 10.0 mi Calm Calm - N/A   Clear
4:53 AM 68.0 °F 64.9 °F 90% 30.11 in 10.0 mi Calm Calm - N/A   Clear
5:53 AM 69.1 °F 64.9 °F 87% 30.13 in 9.0 mi NNW 3.5 mph - N/A   Scattered Clouds
6:53 AM 69.1 °F 64.0 °F 84% 30.14 in 9.0 mi Calm Calm - N/A   Overcast
7:53 AM 69.1 °F 64.0 °F 84% 30.16 in 10.0 mi NNE 3.5 mph - N/A   Overcast
8:53 AM 71.1 °F 64.9 °F 81% 30.18 in 10.0 mi Variable 4.6 mph - N/A   Overcast
9:53 AM 73.0 °F 66.0 °F 79% 30.20 in 10.0 mi Variable 5.8 mph - N/A   Overcast
10:53 AM 75.9 °F 64.0 °F 67% 30.19 in 10.0 mi North 5.8 mph - N/A   Overcast
11:53 AM 77.0 °F 64.0 °F 64% 30.17 in 10.0 mi North 6.9 mph - N/A   Overcast
12:53 PM 78.1 °F 63.0 °F 60% 30.15 in 10.0 mi NNW 9.2 mph - N/A   Overcast
1:53 PM 79.0 °F 61.0 °F 54% 30.14 in 10.0 mi Variable 4.6 mph - N/A   Overcast
2:53 PM 79.0 °F 59.0 °F 50% 30.12 in 10.0 mi North 6.9 mph - N/A   Overcast
3:53 PM 79.0 °F 59.0 °F 50% 30.12 in 10.0 mi North 8.1 mph - N/A   Overcast
4:53 PM 78.1 °F 59.0 °F 52% 30.13 in 10.0 mi Variable 3.5 mph - N/A   Overcast
5:53 PM 75.9 °F 63.0 °F 64% 30.14 in 10.0 mi NE 5.8 mph - N/A   Overcast
6:53 PM 75.0 °F 62.1 °F 64% 30.15 in 10.0 mi Variable 6.9 mph - N/A   Overcast
7:53 PM 73.0 °F 63.0 °F 71% 30.18 in 10.0 mi North 9.2 mph - N/A   Overcast
8:53 PM 72.0 °F 63.0 °F 73% 30.19 in 10.0 mi Variable 5.8 mph - N/A   Overcast
9:53 PM 70.0 °F 63.0 °F 78% 30.19 in 10.0 mi Variable 3.5 mph - N/A   Overcast
9:55 PM 69.8 °F 62.6 °F 78% 30.19 in 10.0 mi North 6.9 mph - N/A   Overcast
10:35 PM 69.8 °F 62.6 °F 78% 30.19 in 10.0 mi North 9.2 mph - N/A   Overcast
10:53 PM 69.1 °F 63.0 °F 81% 30.19 in 10.0 mi Variable 5.8 mph - N/A   Overcast
11:53 PM 68.0 °F 64.0 °F 87% 30.17 in 6.0 mi NNW 4.6 mph - 0.00 in Rain Light Rain